EW9485 Weather Reports


Display with metric or nautical units.
time (UTC)temp
F
wind
direction
speed
MPH
gust
MPH
rain 1hr
in
rain 24hr
in
rain mn
in
humidity
%
barometer
mb
20260901031601 79 0 0.0 0.0 0.00 0.00 0.00 86 1017.7
20260901031044 79 0 0.0 0.0 0.00 0.00 0.00 86 1017.7
20260901030549 79 0 0.0 0.0 0.00 0.00 0.00 85 1017.7
20260901025544 79 0 0.0 0.0 0.00 0.00 0.00 85 1017.8
20260901025047 79 0 0.0 0.0 0.00 0.00 0.00 85 1017.7
20260901024603 79 0 0.0 1.0 0.00 0.00 0.00 85 1017.8
20260901024044 79 0 0.0 1.0 0.00 0.00 0.00 85 1017.8
20260901023546 80 0 0.0 1.0 0.00 0.00 0.00 85 1017.8
20260901023107 80 175 0.0 1.0 0.00 0.00 0.00 84 1017.8
20260901022545 80 175 0.0 1.0 0.00 0.00 0.00 85 1017.7
20260901022046 80 0 0.0 0.0 0.00 0.00 0.00 85 1017.7
20260901021634 80 0 0.0 0.0 0.00 0.00 0.00 85 1017.6
20260901021047 80 0 0.0 0.0 0.00 0.00 0.00 85 1017.6
20260901020548 80 0 0.0 2.0 0.00 0.00 0.00 84 1017.6
20260901020114 80 0 0.0 2.0 0.00 0.00 0.00 84 1017.7
20260901015547 80 0 0.0 2.0 0.00 0.00 0.00 83 1017.6
20260901015049 80 0 0.0 1.0 0.00 0.00 0.00 83 1017.6
20260901014607 81 0 0.0 1.0 0.00 0.00 0.00 82 1017.4
20260901014045 81 0 0.0 1.0 0.00 0.00 0.00 82 1017.4
20260901013545 81 175 0.0 3.0 0.00 0.00 0.00 82 1017.4
20260901013113 81 0 0.0 3.0 0.00 0.00 0.00 81 1017.3
20260901012550 82 175 1.0 4.0 0.00 0.00 0.00 81 1017.3
20260901012044 82 175 1.0 4.0 0.00 0.00 0.00 81 1017.2
20260901011607 82 176 1.0 4.0 0.00 0.00 0.00 82 1017.2
20260901011044 82 186 1.0 5.0 0.00 0.00 0.00 82 1017.1
20260901010545 82 0 1.0 7.0 0.00 0.00 0.00 82 1017.0
20260901010109 82 186 3.0 7.0 0.00 0.00 0.00 81 1017.0
20260901005546 82 154 2.0 6.0 0.00 0.00 0.00 81 1016.9
20260901005046 83 175 2.0 6.0 0.00 0.00 0.00 81 1016.9
20260901004612 83 180 2.0 4.0 0.00 0.00 0.00 81 1016.9
20260901004046 83 199 1.0 3.0 0.00 0.00 0.00 81 1016.8
20260901003546 83 199 1.0 4.0 0.00 0.00 0.00 80 1016.8
20260901003123 83 199 0.0 4.0 0.00 0.00 0.00 80 1016.6
20260901002546 83 0 2.0 5.0 0.00 0.00 0.00 80 1016.6
20260901002045 83 189 1.0 5.0 0.00 0.00 0.00 80 1016.6
20260901001609 83 189 2.0 5.0 0.00 0.00 0.00 80 1016.6
20260901001044 83 192 2.0 5.0 0.00 0.00 0.00 79 1016.5
20260901000545 83 189 2.0 6.0 0.00 0.00 0.00 78 1016.4
20260901000059 83 188 3.0 8.0 0.00 0.00 0.00 78 1016.4
20260831235544 84 194 3.0 9.0 0.00 0.00 0.00 79 1016.5
20260831235045 84 182 4.0 9.0 0.00 0.00 0.00 79 1016.4
20260831234602 84 188 4.0 9.0 0.00 0.00 0.00 79 1016.5
20260831234045 84 207 3.0 8.0 0.00 0.00 0.00 78 1016.4
20260831233549 84 244 3.0 8.0 0.00 0.00 0.00 78 1016.3
20260831233059 84 195 4.0 7.0 0.00 0.00 0.00 77 1016.3
20260831232545 85 211 2.0 6.0 0.00 0.00 0.00 76 1016.3
20260831232045 85 186 2.0 7.0 0.00 0.00 0.00 76 1016.4
20260831231602 85 202 3.0 7.0 0.00 0.00 0.00 75 1016.5
20260831231048 86 197 2.0 6.0 0.00 0.00 0.00 75 1016.4
20260831230545 86 207 2.0 8.0 0.00 0.00 0.00 74 1016.5
20260831230104 86 210 2.0 9.0 0.00 0.00 0.00 74 1016.6
20260831225544 86 221 2.0 9.0 0.00 0.00 0.00 74 1016.4
20260831225044 87 202 4.0 10.0 0.00 0.00 0.00 72 1016.4
20260831224558 86 182 4.0 10.0 0.00 0.00 0.00 73 1016.5
20260831224048 86 223 4.0 10.0 0.00 0.00 0.00 73 1016.4
20260831223547 86 194 5.0 7.0 0.00 0.00 0.00 72 1016.3
20260831223055 87 221 2.0 8.0 0.00 0.00 0.00 74 1016.4
20260831222546 87 213 4.0 9.0 0.00 0.00 0.00 73 1016.3
20260831222048 88 197 4.0 9.0 0.00 0.00 0.00 72 1016.4
20260831221607 88 186 3.0 9.0 0.00 0.00 0.00 72 1016.4
20260831221045 88 200 3.0 9.0 0.00 0.00 0.00 72 1016.3
20260831220546 88 235 4.0 9.0 0.00 0.00 0.00 72 1016.4
20260831220118 88 188 4.0 9.0 0.00 0.00 0.00 71 1016.4
20260831215548 88 213 3.0 9.0 0.00 0.00 0.00 74 1016.4
20260831215046 87 213 2.0 9.0 0.00 0.00 0.00 74 1016.5
20260831214556 87 190 4.0 8.0 0.00 0.00 0.00 72 1016.5
20260831214046 87 198 4.0 8.0 0.00 0.00 0.00 73 1016.4
20260831213546 87 191 5.0 10.0 0.00 0.00 0.00 71 1016.4
20260831213053 88 203 5.0 10.0 0.00 0.00 0.00 71 1016.5
20260831212547 88 192 6.0 10.0 0.00 0.00 0.00 70 1016.4
20260831212045 88 207 3.0 8.0 0.00 0.00 0.00 69 1016.5
20260831211611 88 196 3.0 8.0 0.00 0.00 0.00 70 1016.3
20260831211044 88 192 4.0 8.0 0.00 0.00 0.00 70 1016.6
20260831210546 88 186 3.0 8.0 0.00 0.00 0.00 69 1016.5
20260831210100 88 192 3.0 8.0 0.00 0.00 0.00 70 1016.6
20260831205545 88 223 3.0 10.0 0.00 0.01 0.00 71 1016.5
20260831205045 87 230 4.0 10.0 0.00 0.01 0.00 71 1016.6
20260831204558 87 200 3.0 11.0 0.00 0.01 0.00 72 1016.6
20260831204045 88 192 5.0 12.0 0.00 0.01 0.00 73 1016.7
20260831203545 88 242 6.0 12.0 0.00 0.01 0.00 75 1016.6
20260831203100 89 173 3.0 11.0 0.00 0.01 0.00 72 1016.5
20260831202545 88 198 6.0 11.0 0.00 0.01 0.00 73 1016.7
20260831202046 88 209 4.0 10.0 0.00 0.01 0.00 72 1016.8
20260831201558 88 205 5.0 10.0 0.00 0.01 0.00 71 1016.8
20260831201048 89 189 3.0 10.0 0.00 0.01 0.00 72 1016.7
20260831200544 89 190 4.0 11.0 0.00 0.01 0.00 71 1016.6
20260831200056 89 193 6.0 11.0 0.00 0.01 0.00 70 1016.7
20260831195549 90 165 4.0 12.0 0.00 0.22 0.00 72 1016.8
20260831195046 90 177 6.0 12.0 0.00 0.22 0.00 70 1016.7
20260831194635 90 182 5.0 11.0 0.00 0.22 0.00 69 1016.8
20260831194049 89 192 5.0 10.0 0.00 0.22 0.00 72 1016.7
20260831193545 88 164 5.0 10.0 0.00 0.22 0.00 71 1016.8
20260831193058 88 182 4.0 15.0 0.00 0.22 0.00 71 1016.7
20260831192545 88 185 5.0 15.0 0.00 0.22 0.00 70 1016.8
20260831192044 90 190 5.0 15.0 0.00 0.22 0.00 67 1016.9
20260831191558 93 157 1.0 9.0 0.00 0.22 0.00 62 1017.0
20260831191046 92 122 4.0 9.0 0.00 0.22 0.00 62 1017.0
20260831190544 90 88 2.0 6.0 0.00 0.22 0.00 63 1017.1
20260831190106 89 97 1.0 8.0 0.00 0.22 0.00 66 1017.2
20260831185545 89 98 3.0 11.0 0.00 0.22 0.00 64 1017.3
20260831185045 91 87 3.0 11.0 0.00 0.22 0.00 61 1017.3
20260831184628 91 65 6.0 11.0 0.00 0.22 0.00 62 1017.3
20260831184044 90 53 2.0 9.0 0.00 0.22 0.00 63 1017.4
20260831183603 90 31 4.0 9.0 0.00 0.22 0.00 62 1017.3
20260831183109 91 47 2.0 9.0 0.00 0.22 0.00 62 1017.4
20260831182546 92 69 1.0 10.0 0.00 0.22 0.00 61 1017.4
20260831182046 92 93 6.0 12.0 0.00 0.22 0.00 61 1017.6
20260831181603 91 76 6.0 12.0 0.00 0.22 0.00 64 1017.5
20260831181046 90 79 5.0 11.0 0.00 0.22 0.00 65 1017.7
20260831180548 91 137 4.0 10.0 0.00 0.22 0.00 66 1017.7
20260831180108 90 112 4.0 11.0 0.00 0.22 0.00 67 1017.9
20260831175551 89 63 5.0 11.0 0.00 0.22 0.00 63 1017.7
20260831175047 91 69 3.0 12.0 0.00 0.22 0.00 67 1017.7
20260831174609 91 86 6.0 12.0 0.00 0.22 0.00 69 1017.8
20260831174046 91 46 6.0 11.0 0.00 0.22 0.00 65 1017.8
20260831173547 90 32 5.0 14.0 0.00 0.22 0.00 65 1017.9
20260831173104 89 66 5.0 14.0 0.00 0.22 0.00 66 1018.0
20260831172543 90 45 5.0 14.0 0.00 0.22 0.00 65 1018.1
20260831172047 89 99 4.0 10.0 0.00 0.22 0.00 68 1018.3
20260831171608 88 49 3.0 10.0 0.00 0.22 0.00 67 1018.3
20260831171047 89 88 3.0 10.0 0.00 0.22 0.00 71 1018.3
20260831170548 89 134 4.0 11.0 0.00 0.22 0.00 68 1018.3
20260831165542 88 84 6.0 13.0 0.00 0.22 0.00 70 1018.4
20260831165042 87 104 4.0 11.0 0.00 0.22 0.00 74 1018.4
20260831164600 86 100 4.0 11.0 0.00 0.22 0.00 71 1018.5
20260831164043 88 117 6.0 13.0 0.00 0.22 0.00 69 1018.4
20260831163547 88 84 4.0 13.0 0.00 0.22 0.00 70 1018.5
20260831163102 89 84 3.0 11.0 0.00 0.22 0.00 70 1018.4
20260831162544 87 130 5.0 11.0 0.00 0.22 0.00 71 1018.3
20260831162043 87 109 5.0 12.0 0.00 0.22 0.00 72 1018.3
20260831161554 87 71 6.0 13.0 0.00 0.22 0.00 71 1018.5
20260831161042 88 79 5.0 13.0 0.00 0.22 0.00 70 1018.5
20260831160545 88 9 6.0 12.0 0.00 0.22 0.00 75 1018.6
20260831160100 88 40 6.0 12.0 0.00 0.22 0.00 71 1018.7
20260831155548 88 86 3.0 9.0 0.00 0.22 0.00 73 1018.7
20260831155049 87 46 4.0 9.0 0.00 0.22 0.00 74 1018.7
20260831154617 86 112 5.0 9.0 0.00 0.22 0.00 75 1018.6
20260831154047 86 84 4.0 11.0 0.00 0.22 0.00 74 1018.7
20260831153544 86 54 5.0 11.0 0.00 0.22 0.00 75 1018.9
20260831153350 86 65 7.0 11.0 0.00 0.22 0.00 75 1018.9
20260831152637 88 83 5.0 9.0 0.00 0.22 0.00 74 1018.9
20260831152046 87 111 5.0 11.0 0.00 0.22 0.00 75 1018.9
20260831151605 86 91 6.0 11.0 0.00 0.22 0.00 76 1018.8
20260831151044 86 69 5.0 11.0 0.00 0.22 0.00 77 1018.8
20260831150544 85 76 5.0 12.0 0.00 0.22 0.00 78 1018.8
20260831150057 85 60 6.0 12.0 0.00 0.22 0.00 78 1018.8
20260831145545 85 96 5.0 12.0 0.00 0.22 0.00 81 1018.8
20260831145051 84 64 5.0 9.0 0.00 0.22 0.00 78 1018.9
20260831144635 84 55 5.0 10.0 0.00 0.22 0.00 79 1018.9
20260831144045 84 74 5.0 12.0 0.00 0.22 0.00 77 1018.8
20260831143546 85 91 3.0 12.0 0.00 0.22 0.00 79 1018.8
20260831143100 84 115 6.0 12.0 0.00 0.22 0.00 79 1018.8
20260831142545 84 37 5.0 10.0 0.00 0.22 0.00 79 1018.7
20260831142045 84 59 6.0 11.0 0.00 0.22 0.00 79 1018.7
20260831141557 84 84 4.0 11.0 0.00 0.22 0.00 80 1018.6
20260831141045 84 52 4.0 11.0 0.00 0.22 0.00 80 1018.5
20260831140546 83 56 5.0 10.0 0.00 0.22 0.00 80 1018.4
20260831140056 83 93 4.0 10.0 0.00 0.22 0.00 81 1018.4
20260831135546 83 78 5.0 10.0 0.00 0.22 0.00 81 1018.4
20260831135045 83 86 5.0 10.0 0.00 0.22 0.00 81 1018.4
20260831134557 83 113 5.0 10.0 0.00 0.22 0.00 81 1018.5
20260831134047 82 86 4.0 10.0 0.00 0.22 0.00 82 1018.4
20260831133545 82 94 5.0 10.0 0.00 0.22 0.00 82 1018.4
20260831133058 82 114 5.0 9.0 0.00 0.22 0.00 82 1018.4
20260831132545 81 83 3.0 10.0 0.00 0.22 0.00 83 1018.3
20260831132046 81 78 3.0 10.0 0.00 0.22 0.00 83 1018.3
20260831131557 81 67 4.0 9.0 0.00 0.22 0.00 83 1018.3
20260831131045 80 48 2.0 8.0 0.00 0.22 0.00 84 1018.3
20260831130545 80 80 5.0 8.0 0.00 0.22 0.00 85 1018.4
20260831130101 79 96 4.0 8.0 0.00 0.22 0.00 85 1018.3
20260831125548 79 80 3.0 10.0 0.00 0.22 0.00 87 1018.2
20260831125045 78 103 5.0 10.0 0.00 0.22 0.00 87 1018.1
20260831124556 78 95 4.0 10.0 0.00 0.22 0.00 88 1018.1
20260831124045 78 80 3.0 8.0 0.00 0.22 0.00 89 1018.1
20260831123545 77 76 3.0 7.0 0.00 0.22 0.00 90 1018.0
20260831123057 77 98 3.0 7.0 0.00 0.22 0.00 90 1017.9
20260831122545 76 80 3.0 8.0 0.00 0.22 0.00 91 1017.9
20260831122045 76 126 4.0 10.0 0.00 0.22 0.00 91 1017.9
20260831121605 75 88 5.0 10.0 0.00 0.22 0.00 91 1017.9
20260831121043 75 108 3.0 11.0 0.00 0.22 0.00 91 1017.8
20260831120548 75 87 5.0 11.0 0.00 0.22 0.00 91 1017.8
20260831120100 75 112 3.0 8.0 0.00 0.22 0.00 91 1017.8
20260831115544 74 59 3.0 8.0 0.00 0.22 0.00 91 1017.8
20260831115045 74 57 2.0 8.0 0.00 0.22 0.00 91 1017.8
20260831114558 74 45 4.0 8.0 0.00 0.22 0.00 91 1017.7
20260831114047 74 38 3.0 8.0 0.00 0.22 0.00 91 1017.6
20260831113546 74 81 3.0 8.0 0.00 0.22 0.00 91 1017.4
20260831113107 74 101 2.0 7.0 0.00 0.22 0.00 91 1017.3
20260831112545 74 89 2.0 7.0 0.00 0.22 0.00 91 1017.3
20260831112045 74 93 3.0 7.0 0.00 0.22 0.00 91 1017.4
20260831111615 74 32 3.0 9.0 0.00 0.22 0.00 91 1017.4
20260831111046 74 84 3.0 9.0 0.00 0.22 0.00 90 1017.3
20260831110549 74 76 2.0 9.0 0.00 0.22 0.00 91 1017.2
20260831110137 74 73 3.0 7.0 0.00 0.22 0.00 90 1017.1
20260831105546 74 76 2.0 6.0 0.00 0.22 0.00 90 1017.1
20260831105046 74 80 3.0 6.0 0.00 0.22 0.00 90 1017.0
20260831104602 74 84 2.0 7.0 0.00 0.22 0.00 90 1016.8
20260831104046 74 59 4.0 9.0 0.00 0.22 0.00 90 1017.0
20260831103546 74 55 3.0 9.0 0.00 0.22 0.00 90 1016.9
20260831103101 74 65 3.0 9.0 0.00 0.22 0.00 90 1016.9
20260831102547 74 92 3.0 9.0 0.00 0.22 0.00 90 1016.9
20260831102049 74 57 2.0 6.0 0.00 0.22 0.00 90 1016.8
20260831101555 74 53 2.0 5.0 0.00 0.22 0.00 90 1016.8
20260831101047 74 39 2.0 4.0 0.00 0.22 0.00 90 1016.8
20260831100546 75 71 2.0 5.0 0.00 0.22 0.00 90 1016.6
20260831100108 75 71 1.0 5.0 0.00 0.22 0.00 90 1016.7
20260831095545 75 75 1.0 4.0 0.00 0.22 0.00 90 1016.7
20260831095046 75 75 2.0 4.0 0.00 0.22 0.00 90 1016.6
20260831094559 75 75 2.0 5.0 0.00 0.22 0.00 90 1016.5
20260831094050 75 71 1.0 5.0 0.00 0.22 0.00 90 1016.5
20260831093547 75 76 2.0 5.0 0.00 0.22 0.00 90 1016.3
20260831093059 74 85 1.0 4.0 0.00 0.22 0.00 90 1016.3
20260831092547 75 111 1.0 4.0 0.00 0.22 0.00 90 1016.3
20260831092045 75 112 1.0 4.0 0.00 0.22 0.00 90 1016.3
20260831091600 75 114 1.0 3.0 0.00 0.22 0.00 90 1016.4
20260831091046 75 113 1.0 3.0 0.00 0.22 0.00 90 1016.5
20260831090547 75 113 1.0 3.0 0.00 0.22 0.00 90 1016.5
20260831090059 75 113 1.0 4.0 0.00 0.22 0.00 90 1016.5
20260831085546 75 113 1.0 4.0 0.00 0.22 0.00 90 1016.4
20260831085046 75 115 2.0 4.0 0.00 0.22 0.00 90 1016.4
20260831084604 75 122 1.0 4.0 0.00 0.22 0.00 90 1016.4
20260831084046 75 122 1.0 4.0 0.00 0.22 0.00 90 1016.4
20260831083543 75 122 1.0 3.0 0.00 0.22 0.00 90 1016.4
20260831083104 75 122 1.0 4.0 0.00 0.22 0.00 90 1016.5
20260831082543 75 122 2.0 4.0 0.00 0.22 0.00 90 1016.5
20260831082046 75 122 2.0 4.0 0.00 0.22 0.00 90 1016.5
20260831081632 75 104 2.0 4.0 0.00 0.22 0.00 90 1016.5
20260831081048 74 102 2.0 6.0 0.00 0.22 0.00 89 1016.7
20260831080548 75 105 2.0 6.0 0.00 0.22 0.00 89 1016.7
20260831080057 75 101 2.0 4.0 0.00 0.22 0.00 89 1016.8
20260831075543 75 105 2.0 6.0 0.00 0.22 0.00 89 1016.8
20260831075043 75 104 2.0 6.0 0.00 0.22 0.00 89 1016.8
20260831074600 75 101 2.0 7.0 0.00 0.22 0.00 89 1016.7
20260831074043 75 96 1.0 7.0 0.00 0.22 0.00 89 1016.7
20260831073543 75 74 2.0 6.0 0.00 0.22 0.00 89 1016.8
20260831073134 75 83 2.0 6.0 0.00 0.22 0.00 89 1016.8
20260831072544 75 75 2.0 6.0 0.00 0.22 0.00 89 1016.8
20260831072051 75 92 2.0 5.0 0.00 0.22 0.00 89 1016.8
20260831071558 75 86 2.0 4.0 0.00 0.22 0.00 88 1017.0
20260831071046 75 80 2.0 5.0 0.00 0.22 0.00 88 1017.0
20260831070547 75 78 3.0 5.0 0.00 0.22 0.00 88 1017.0
20260831070059 75 84 1.0 5.0 0.00 0.22 0.00 88 1017.0
20260831065544 75 86 2.0 6.0 0.00 0.22 0.00 88 1017.1
20260831065044 75 66 2.0 6.0 0.00 0.22 0.00 88 1016.9
20260831064625 75 88 2.0 4.0 0.00 0.22 0.00 88 1017.1
20260831064049 75 76 1.0 7.0 0.00 0.22 0.00 88 1017.1
20260831063544 75 76 3.0 7.0 0.00 0.22 0.00 88 1017.0
20260831063101 75 84 2.0 4.0 0.00 0.22 0.00 88 1017.0
20260831062545 75 76 2.0 4.0 0.00 0.22 0.00 88 1017.1
20260831062047 75 74 1.0 4.0 0.00 0.22 0.00 88 1017.1
20260831061557 75 89 1.0 4.0 0.00 0.22 0.00 88 1017.2
20260831061048 75 84 1.0 5.0 0.00 0.22 0.00 88 1017.0
20260831060544 75 84 2.0 5.0 0.00 0.22 0.00 88 1017.2
20260831060113 75 69 2.0 5.0 0.00 0.22 0.00 88 1017.1
20260831055548 75 59 2.0 5.0 0.00 0.22 0.00 88 1017.1
20260831055047 75 67 1.0 5.0 0.00 0.22 0.00 88 1017.1
20260831054605 75 76 2.0 5.0 0.00 0.22 0.00 88 1017.1
20260831054047 75 94 2.0 6.0 0.00 0.22 0.00 88 1017.1
20260831053548 75 95 2.0 6.0 0.00 0.22 0.00 88 1017.1
20260831053059 75 82 2.0 4.0 0.00 0.22 0.00 88 1017.1
20260831052548 75 65 1.0 3.0 0.00 0.22 0.00 88 1017.0
20260831052045 75 65 1.0 4.0 0.00 0.22 0.00 88 1017.2
20260831051603 75 65 1.0 5.0 0.00 0.22 0.00 88 1017.2
20260831051047 75 65 1.0 5.0 0.00 0.22 0.00 88 1017.2
20260831050546 75 62 2.0 5.0 0.00 0.22 0.00 88 1017.3
20260831050140 75 36 2.0 5.0 0.00 0.22 0.00 88 1017.3
20260831045543 75 64 1.0 3.0 0.00 0.22 0.22 88 1017.3
20260831045045 75 63 1.0 4.0 0.00 0.22 0.22 88 1017.3
20260831044606 75 63 2.0 6.0 0.00 0.22 0.22 87 1017.2
20260831044046 75 61 3.0 6.0 0.00 0.22 0.22 87 1017.2
20260831043545 76 43 2.0 5.0 0.00 0.22 0.22 87 1017.2
20260831043057 76 34 2.0 5.0 0.00 0.22 0.22 87 1017.1
20260831042546 76 52 2.0 5.0 0.00 0.22 0.22 87 1017.1
20260831042046 76 30 3.0 5.0 0.00 0.22 0.22 87 1017.1
20260831041608 76 51 3.0 5.0 0.00 0.22 0.22 87 1017.2
20260831041044 76 65 2.0 5.0 0.00 0.22 0.22 86 1017.1
20260831040546 76 68 2.0 5.0 0.00 0.22 0.22 86 1017.0
20260831035545 76 65 2.0 6.0 0.00 0.22 0.22 86 1017.0
20260831035045 76 57 2.0 6.0 0.00 0.22 0.22 86 1017.0
20260831034557 76 57 3.0 6.0 0.00 0.22 0.22 86 1017.2
20260831034045 76 51 2.0 6.0 0.00 0.22 0.22 86 1017.1
20260831033546 76 50 3.0 6.0 0.00 0.22 0.22 86 1017.2
20260831033103 76 42 3.0 8.0 0.00 0.22 0.22 86 1017.1
20260831032546 76 62 3.0 8.0 0.00 0.22 0.22 86 1017.3
20260831032046 76 57 3.0 6.0 0.00 0.22 0.22 86 1017.3